LZSAA LBPD-LBPD

Flight info

Callsign LZSAA
Flight time N/A
Altitude 8000
Route RUMEN4A/12 RUME4A RUMEN
Aircraft DC3/M-V/N

Departure

Time 2026-05-08 20:28
Airport Plovdiv International Airport (LBPD)

Arrival

Time N/A
Airport Plovdiv International Airport (LBPD)
Time Latitude Longitude Altitude Speed Heading
2026-05-08 20:07 42.07610 24.84355 578 ft 0 kts 38°
2026-05-08 20:18 42.07610 24.84356 578 ft 0 kts 38°
2026-05-08 20:23 42.07616 24.84361 578 ft 1 kts 14°
2026-05-08 20:23 42.07631 24.84355 578 ft 5 kts 313°
2026-05-08 20:24 42.07642 24.84284 577 ft 9 kts 275°
2026-05-08 20:24 42.07657 24.84200 575 ft 10 kts 303°
2026-05-08 20:24 42.07703 24.84117 573 ft 11 kts 304°
2026-05-08 20:24 42.07677 24.84028 571 ft 11 kts 214°
2026-05-08 20:25 42.07621 24.83982 572 ft 4 kts 212°
2026-05-08 20:25 42.07615 24.83977 572 ft 0 kts 211°
2026-05-08 20:25 42.07594 24.83960 572 ft 7 kts 210°
2026-05-08 20:25 42.07517 24.83925 574 ft 18 kts 192°
2026-05-08 20:26 42.07412 24.83972 576 ft 2 kts 138°
2026-05-08 20:26 42.07412 24.83973 576 ft 0 kts 140°
2026-05-08 20:26 42.07401 24.83986 576 ft 11 kts 136°
2026-05-08 20:26 42.07271 24.84231 581 ft 52 kts 131°
2026-05-08 20:27 42.06976 24.84760 591 ft 86 kts 124°
2026-05-08 20:27 42.06573 24.85482 604 ft 104 kts 129°
2026-05-08 20:27 42.06132 24.86256 770 ft 101 kts 129°
2026-05-08 20:27 42.05719 24.86989 1063 ft 98 kts 118°
2026-05-08 20:28 42.05693 24.87839 1416 ft 92 kts 66°
2026-05-08 20:28 42.06186 24.88323 1702 ft 93 kts
2026-05-08 20:28 42.06794 24.87965 1881 ft 106 kts 309°
2026-05-08 20:28 42.07137 24.87039 2044 ft 117 kts 290°
2026-05-08 20:29 42.07355 24.85993 2353 ft 113 kts 281°
2026-05-08 20:29 42.07414 24.84967 2703 ft 107 kts 264°
2026-05-08 20:29 42.07272 24.83982 2960 ft 110 kts 262°
2026-05-08 20:29 42.07459 24.82921 3070 ft 126 kts 301°
2026-05-08 20:30 42.07967 24.81929 3245 ft 130 kts 303°
2026-05-08 20:30 42.08401 24.80874 3482 ft 128 kts 287°
2026-05-08 20:30 42.08717 24.79706 3578 ft 138 kts 300°
2026-05-08 20:30 42.09261 24.78710 3894 ft 129 kts 309°
2026-05-08 20:31 42.09796 24.77693 4029 ft 135 kts 300°
2026-05-08 20:31 42.10271 24.76585 4188 ft 138 kts 300°
2026-05-08 20:31 42.10756 24.75480 4353 ft 138 kts 301°
2026-05-08 20:31 42.11253 24.74379 4512 ft 137 kts 301°
2026-05-08 20:32 42.11747 24.73266 4677 ft 140 kts 300°
2026-05-08 20:32 42.12250 24.72114 4853 ft 141 kts 300°
2026-05-08 20:32 42.12758 24.70988 5024 ft 142 kts 301°
2026-05-08 20:32 42.13277 24.69832 5201 ft 142 kts 299°
2026-05-08 20:33 42.13774 24.68685 5378 ft 142 kts 300°
2026-05-08 20:33 42.14290 24.67533 5556 ft 143 kts 300°
2026-05-08 20:33 42.14814 24.66381 5734 ft 143 kts 299°
2026-05-08 20:33 42.15313 24.65213 5912 ft 143 kts 300°
2026-05-08 20:34 42.15821 24.64059 6088 ft 143 kts 301°
2026-05-08 20:34 42.16336 24.62917 6276 ft 143 kts 301°
2026-05-08 20:34 42.17377 24.60616 6647 ft 143 kts 299°
2026-05-08 20:35 42.17883 24.59475 6819 ft 143 kts 300°
2026-05-08 20:35 42.18401 24.58313 6979 ft 143 kts 298°
2026-05-08 20:35 42.18909 24.57160 7148 ft 143 kts 299°
2026-05-08 20:35 42.19427 24.55997 7324 ft 144 kts 299°
2026-05-08 20:36 42.19942 24.54840 7506 ft 144 kts 299°
2026-05-08 20:36 42.20458 24.53679 7670 ft 144 kts 299°
2026-05-08 20:36 42.20974 24.52515 7839 ft 143 kts 298°
2026-05-08 20:36 42.21474 24.51366 8001 ft 143 kts 299°
2026-05-08 20:37 42.22007 24.50146 7978 ft 154 kts 301°
2026-05-08 20:37 42.22546 24.48918 7972 ft 154 kts 300°
2026-05-08 20:37 42.23103 24.47649 7964 ft 160 kts 299°
2026-05-08 20:37 42.23687 24.46334 7966 ft 162 kts 300°
2026-05-08 20:38 42.24254 24.45036 7982 ft 160 kts 298°
2026-05-08 20:38 42.24824 24.43746 7975 ft 159 kts 299°
2026-05-08 20:38 42.25384 24.42467 7988 ft 159 kts 300°
2026-05-08 20:38 42.25960 24.41163 7978 ft 159 kts 300°
2026-05-08 20:39 42.26526 24.39893 7983 ft 159 kts 301°
2026-05-08 20:39 42.27089 24.38587 7991 ft 159 kts 299°
2026-05-08 20:39 42.27657 24.37306 7970 ft 160 kts 299°
2026-05-08 20:39 42.28226 24.36017 7981 ft 159 kts 300°
2026-05-08 20:40 42.28793 24.34707 7972 ft 158 kts 298°
2026-05-08 20:40 42.29346 24.33410 7967 ft 161 kts 297°
2026-05-08 20:40 42.29926 24.32105 7978 ft 166 kts 301°
2026-05-08 20:40 42.30518 24.30746 7987 ft 168 kts 300°
2026-05-08 20:41 42.31125 24.29367 7995 ft 171 kts 300°
2026-05-08 20:41 42.31730 24.27977 7985 ft 174 kts 298°
2026-05-08 20:41 42.32355 24.26564 7991 ft 175 kts 298°
2026-05-08 20:41 42.32967 24.25138 8000 ft 175 kts 298°
2026-05-08 20:42 42.33597 24.23730 8082 ft 170 kts 296°
2026-05-08 20:42 42.34179 24.22457 8468 ft 151 kts 299°
2026-05-08 20:42 42.34740 24.21313 8784 ft 141 kts 302°
2026-05-08 20:42 42.35296 24.20266 9046 ft 136 kts 304°
2026-05-08 20:43 42.35870 24.19265 9305 ft 133 kts 306°
2026-05-08 20:43 42.36463 24.18297 9552 ft 132 kts 307°
2026-05-08 20:43 42.37066 24.17385 9772 ft 131 kts 308°
2026-05-08 20:43 42.37705 24.16486 9998 ft 132 kts 311°
2026-05-08 20:44 42.38369 24.15630 10214 ft 131 kts 316°
2026-05-08 20:44 42.39051 24.14812 10439 ft 131 kts 316°
2026-05-08 20:44 42.39749 24.14022 10631 ft 132 kts 318°
2026-05-08 20:44 42.40528 24.13195 10590 ft 151 kts 320°
2026-05-08 20:45 42.41407 24.12312 10554 ft 162 kts 322°
2026-05-08 20:45 42.42414 24.11370 9943 ft 199 kts 324°
2026-05-08 20:45 42.43592 24.10326 9793 ft 195 kts 327°
2026-05-08 20:45 42.44605 24.09277 10076 ft 174 kts 314°
2026-05-08 20:46 42.45010 24.07835 10308 ft 160 kts 270°
2026-05-08 20:46 42.45012 24.06400 10573 ft 150 kts 270°
2026-05-08 20:46 42.45139 24.05029 10775 ft 147 kts 296°
2026-05-08 20:46 42.45894 24.04017 10743 ft 160 kts 321°
2026-05-08 20:47 42.46773 24.03121 10927 ft 157 kts 321°
2026-05-08 20:47 42.47668 24.02206 10905 ft 164 kts 321°
2026-05-08 20:47 42.48598 24.01247 10765 ft 173 kts 321°
2026-05-08 20:47 42.49581 24.00219 10589 ft 181 kts 321°
2026-05-08 20:48 42.50592 23.99158 10405 ft 187 kts 322°
2026-05-08 20:48 42.51612 23.98019 10171 ft 194 kts 322°
2026-05-08 20:48 42.52652 23.96797 9862 ft 204 kts 321°
2026-05-08 20:48 42.53769 23.95538 9556 ft 211 kts 321°
2026-05-08 20:49 42.54924 23.94274 9262 ft 215 kts 321°
2026-05-08 20:49 42.56099 23.93016 8962 ft 214 kts 321°
2026-05-08 20:49 42.57257 23.91764 8654 ft 211 kts 321°
2026-05-08 20:49 42.58406 23.90522 8349 ft 209 kts 321°
2026-05-08 20:50 42.59518 23.89303 8047 ft 207 kts 321°
2026-05-08 20:50 42.60641 23.88062 7743 ft 205 kts 321°
2026-05-08 20:50 42.61748 23.86844 7442 ft 204 kts 321°
2026-05-08 20:50 42.62832 23.85658 7225 ft 198 kts 320°
2026-05-08 20:51 42.63557 23.84127 7056 ft 189 kts 294°
2026-05-08 20:51 42.64040 23.82496 6888 ft 184 kts 280°
2026-05-08 20:51 42.64331 23.80815 6738 ft 180 kts 282°
2026-05-08 20:51 42.64684 23.79199 6568 ft 179 kts 286°
2026-05-08 20:52 42.65094 23.77588 6372 ft 180 kts 289°
2026-05-08 20:52 42.65524 23.75981 6177 ft 181 kts 289°
2026-05-08 20:52 42.65953 23.74382 6000 ft 181 kts 289°
2026-05-08 20:52 42.66383 23.72780 5818 ft 181 kts 289°
2026-05-08 20:53 42.66820 23.71176 5605 ft 181 kts 289°
2026-05-08 20:53 42.67293 23.69577 5396 ft 181 kts 293°
2026-05-08 20:53 42.67812 23.68000 5187 ft 181 kts 293°
2026-05-08 20:53 42.68103 23.66378 4969 ft 179 kts 272°
2026-05-08 20:54 42.68229 23.64692 4744 ft 178 kts 275°
2026-05-08 20:54 42.68316 23.63085 4507 ft 157 kts 274°
2026-05-08 20:54 42.68406 23.61756 4336 ft 130 kts 275°
2026-05-08 20:54 42.68479 23.60565 4167 ft 124 kts 274°
2026-05-08 20:55 42.68552 23.59443 4009 ft 115 kts 275°
2026-05-08 20:55 42.68615 23.58389 3855 ft 110 kts 274°
2026-05-08 20:55 42.68681 23.57368 3707 ft 107 kts 275°
2026-05-08 20:55 42.68740 23.56366 3565 ft 106 kts 275°
2026-05-08 20:56 42.68805 23.55371 3423 ft 105 kts 275°
2026-05-08 20:56 42.68864 23.54380 3281 ft 105 kts 276°
2026-05-08 20:56 42.68927 23.53390 3140 ft 104 kts 275°
2026-05-08 20:56 42.68987 23.52400 2998 ft 104 kts 276°
2026-05-08 20:57 42.69047 23.51419 2857 ft 104 kts 275°
2026-05-08 20:57 42.69110 23.50440 2717 ft 103 kts 276°
2026-05-08 20:57 42.69167 23.49465 2578 ft 103 kts 276°
2026-05-08 20:57 42.69230 23.48475 2400 ft 105 kts 276°
2026-05-08 20:58 42.69284 23.47472 2213 ft 107 kts 276°
2026-05-08 20:58 42.69344 23.46480 2073 ft 104 kts 277°
2026-05-08 20:58 42.69410 23.45510 1935 ft 102 kts 278°
2026-05-08 20:58 42.69475 23.44553 1830 ft 99 kts 278°
2026-05-08 20:59 42.69534 23.43631 1750 ft 91 kts 277°
2026-05-08 20:59 42.69583 23.42910 1740 ft 64 kts 279°
2026-05-08 20:59 42.69610 23.42398 1743 ft 46 kts 273°
2026-05-08 20:59 42.69632 23.41992 1745 ft 40 kts 276°
2026-05-08 21:00 42.69601 23.41623 1746 ft 38 kts 248°
2026-05-08 21:00 42.69483 23.41323 1750 ft 33 kts 253°
2026-05-08 21:00 42.69364 23.41201 1750 ft 18 kts 202°
2026-05-08 21:00 42.69237 23.41148 1753 ft 19 kts 189°
2026-05-08 21:01 42.69100 23.41101 1755 ft 21 kts 226°
2026-05-08 21:01 42.69054 23.40924 1759 ft 20 kts 261°
2026-05-08 21:01 42.69060 23.40729 1759 ft 21 kts 273°
2026-05-08 21:01 42.69054 23.40536 1762 ft 16 kts 226°
2026-05-08 21:02 42.69025 23.40513 1763 ft 0 kts 188°